UAL1458 KLAX-KSMF

Flight info

Callsign UAL1458
Flight time N/A
Altitude 34000
Route LADYJ4 CSTRO DCT NURAY SUUTR4
Aircraft B738/M-V/N

Departure

Time 2026-04-23 02:40
Airport Los Angeles International Airport (KLAX)

Arrival

Time N/A
Airport Sacramento International Airport (KSMF)
Time Latitude Longitude Altitude Speed Heading
2026-04-23 02:39 33.97289 -118.49757 4938 ft 195 kts 280°
2026-04-23 02:40 33.97365 -118.51447 5160 ft 212 kts 265°
2026-04-23 02:40 33.97314 -118.53342 5101 ft 238 kts 265°
2026-04-23 02:40 33.97254 -118.55394 5102 ft 253 kts 265°
2026-04-23 02:40 33.97182 -118.57519 5089 ft 239 kts 263°
2026-04-23 02:41 33.96719 -118.59253 5086 ft 204 kts 231°
2026-04-23 02:41 33.95635 -118.60125 5109 ft 179 kts 198°
2026-04-23 02:41 33.94521 -118.60629 5090 ft 168 kts 213°
2026-04-23 02:41 33.93950 -118.61863 5121 ft 188 kts 263°
2026-04-23 02:42 33.94394 -118.63440 5123 ft 215 kts 303°
2026-04-23 02:42 33.95471 -118.64779 5097 ft 232 kts 316°
2026-04-23 02:42 33.96809 -118.65950 5101 ft 243 kts 325°
2026-04-23 02:42 33.98312 -118.66992 5097 ft 250 kts 330°
2026-04-23 02:43 33.99943 -118.67701 5095 ft 256 kts 350°
2026-04-23 02:43 34.01733 -118.67632 5102 ft 259 kts
2026-04-23 02:43 34.03514 -118.67380 5101 ft 261 kts
2026-04-23 02:43 34.05336 -118.67214 5100 ft 262 kts
2026-04-23 02:44 34.07143 -118.67060 5099 ft 262 kts
2026-04-23 02:44 34.08965 -118.67007 5204 ft 257 kts 357°
2026-04-23 02:44 34.10630 -118.67415 5740 ft 234 kts 336°
2026-04-23 02:44 34.11943 -118.68368 6316 ft 213 kts 323°
2026-04-23 02:45 34.13170 -118.69209 6881 ft 198 kts 334°
2026-04-23 02:45 34.14382 -118.69811 7439 ft 183 kts 339°
2026-04-23 02:45 34.15613 -118.70275 7540 ft 201 kts 352°
2026-04-23 02:45 34.17070 -118.70397 7519 ft 215 kts
2026-04-23 02:46 34.18531 -118.70099 7832 ft 210 kts
2026-04-23 02:46 34.19947 -118.70151 8200 ft 205 kts 352°
2026-04-23 02:46 34.21363 -118.70255 8501 ft 203 kts 359°
2026-04-23 02:46 34.22701 -118.70695 8748 ft 202 kts 326°
2026-04-23 02:47 34.23674 -118.71886 9022 ft 198 kts 302°
2026-04-23 02:47 34.24564 -118.73234 8990 ft 217 kts 316°
2026-04-23 02:47 34.25848 -118.74292 8992 ft 229 kts 333°
2026-04-23 02:47 34.27334 -118.75038 8991 ft 238 kts 341°
2026-04-23 02:48 34.28924 -118.75716 8994 ft 244 kts 342°
2026-04-23 02:48 34.30493 -118.76370 9316 ft 233 kts 343°
2026-04-23 02:48 34.31970 -118.76980 9806 ft 217 kts 343°
2026-04-23 02:48 34.33378 -118.77560 10308 ft 216 kts 345°
2026-04-23 02:49 34.34799 -118.78141 10811 ft 215 kts 345°
2026-04-23 02:49 34.36189 -118.78707 11307 ft 213 kts 346°
2026-04-23 02:49 34.37577 -118.79273 11793 ft 211 kts 347°
2026-04-23 02:49 34.38987 -118.79844 12096 ft 219 kts 347°
2026-04-23 02:50 34.40452 -118.80439 12404 ft 224 kts 347°
2026-04-23 02:50 34.41931 -118.81040 12731 ft 227 kts 347°
2026-04-23 02:50 34.43409 -118.81644 13197 ft 223 kts 347°
2026-04-23 02:50 34.44866 -118.82239 13641 ft 220 kts 347°
2026-04-23 02:51 34.46303 -118.82826 14090 ft 216 kts 347°
2026-04-23 02:51 34.47716 -118.83405 14540 ft 212 kts 347°
2026-04-23 02:51 34.49080 -118.83962 14985 ft 208 kts 347°
2026-04-23 02:51 34.50428 -118.84514 15433 ft 203 kts 347°
2026-04-23 02:52 34.51741 -118.85053 15879 ft 197 kts 347°
2026-04-23 02:52 34.53022 -118.85578 16316 ft 191 kts 347°
2026-04-23 02:52 34.54257 -118.86084 16692 ft 187 kts 347°
2026-04-23 02:52 34.55497 -118.86585 16871 ft 195 kts 347°
2026-04-23 02:53 34.56811 -118.87122 17032 ft 205 kts 346°
2026-04-23 02:53 34.58211 -118.87692 17145 ft 216 kts 346°
2026-04-23 02:53 34.59662 -118.88283 17249 ft 227 kts 346°
2026-04-23 02:53 34.61193 -118.88906 17346 ft 236 kts 346°
2026-04-23 02:54 34.62770 -118.89548 17438 ft 243 kts 346°
2026-04-23 02:54 34.64382 -118.90206 17523 ft 250 kts 346°
2026-04-23 02:54 34.66059 -118.90891 17607 ft 255 kts 346°
2026-04-23 02:54 34.67740 -118.91579 17690 ft 259 kts 346°
2026-04-23 02:55 34.69463 -118.92282 17792 ft 261 kts 346°
2026-04-23 02:55 34.71170 -118.92981 17902 ft 262 kts 345°
2026-04-23 02:55 34.72879 -118.93685 18154 ft 257 kts 346°
2026-04-23 02:55 34.74520 -118.94363 18244 ft 234 kts 345°
2026-04-23 02:56 34.76013 -118.94972 17619 ft 231 kts 346°
2026-04-23 02:56 34.77616 -118.95539 16157 ft 254 kts 349°
2026-04-23 02:56 34.79223 -118.96079 15788 ft 230 kts 348°
2026-04-23 02:56 34.80714 -118.96603 15098 ft 228 kts 349°
2026-04-23 02:57 34.82251 -118.97066 14158 ft 230 kts 353°
2026-04-23 02:57 34.83778 -118.97392 13637 ft 214 kts 355°
2026-04-23 02:57 34.85159 -118.97658 13351 ft 192 kts 357°
2026-04-23 02:57 34.86447 -118.97950 12797 ft 192 kts 352°
2026-04-23 02:58 34.87750 -118.98335 12161 ft 190 kts 352°
2026-04-23 02:58 34.88934 -118.98595 11988 ft 165 kts
2026-04-23 02:58 34.90085 -118.98515 11230 ft 174 kts 20°
2026-04-23 02:58 34.91128 -118.97877 10658 ft 164 kts 45°
2026-04-23 02:59 34.91822 -118.96752 9611 ft 190 kts 65°
2026-04-23 02:59 34.92205 -118.95167 8577 ft 198 kts 73°